User: anonymous   Login
Location: Unspecified
(0.0000°N, 0.0000°E)
Time: 07:54:15
(UTC+00:00)
Language:

GONETS D1M 1 - Orbit

View from above orbital plane
View from above orbital plane
View from above satellite
View from above satellite

Ground track
Ground track

The orbit data is extracted from the following two-line orbital elements,

1 28908U 05048A   17328.59178377 +.00000013 +00000-0 +20020-4 0  9994
2 28908 082.4656 146.7898 0006770 312.0723 108.7606 12.55481730546549
Epoch (UTC): 24 November 2017 14:12:10
Eccentricity: 0.0006770
inclination: 82.4656°
perigee height: 1436 km
apogee height: 1447 km
right ascension of ascending node: 146.7898°
argument of perigee: 312.0723°
revolutions per day: 12.55481730
mean anomaly at epoch: 108.7606°
orbit number at epoch: 54654

The dashed part of the orbit path shows where the satellite is in the earth's shadow,  

DLR